Location: Deneb Observatory
(47.2267°N, 100.4953°W)
Time: 19:09:26
(UTC-05:00)

Amateur Radio Satellites - All Passes

Search period start: 29 August 2014 18:39
Search period end: 30 August 2014 18:39
Location: Deneb Observatory, 47.2267°N, 100.4953°W

Satellite Date Start Highest point End Downlink Frequencies (MHz)
Time Altitude Azimuth
SO-67 29 Aug 18:44:52 18:46:18 12° 63° (ENE) 18:47:44 435.3500 MHz FM
HO-68 29 Aug 19:02:22 19:02:38 10° 38° (NE) 19:02:55 435.675 MHz FM
JAS-2 29 Aug 19:23:00 19:28:58 51° 260° (W) 19:34:22 435.800 - 435.900 CW/SSB, 435.910 FM
OPAL 29 Aug 19:25:19 19:30:05 37° 297° (WNW) 19:34:49 ?
STRAND 1 29 Aug 19:28:48 19:32:20 19° 91° (E) 19:35:51 ?
Sapphire 29 Aug 19:33:26 19:38:37 46° 311° (NW) 19:43:52 437.095 MHz 1200 baud AX-25 AFSK
RS-15 29 Aug 19:57:37 20:06:23 28° 256° (WSW) 20:15:25 29.354 - 29.394 USB, Beacon 29.352 USB
PCSat 29 Aug 20:03:52 20:08:35 29° 319° (NW) 20:13:20 145.825 MHz
Hamsat 29 Aug 20:10:02 20:12:19 14° 272° (W) 20:14:37 145.90 MHz
SO-67 29 Aug 20:15:31 20:18:55 54° 260° (W) 20:22:21 435.3500 MHz FM
HO-68 29 Aug 20:41:57 20:48:26 40° 60° (ENE) 20:54:57 435.675 MHz FM
STRAND 1 29 Aug 21:06:55 21:11:59 64° 289° (WNW) 21:17:01 ?
Sapphire 29 Aug 21:20:35 21:23:28 14° 335° (NNW) 21:26:21 437.095 MHz 1200 baud AX-25 AFSK
UKube-1 29 Aug 21:48:51 21:53:04 52° 71° (ENE) 21:57:18 145.840 MHz, 145.915 MHz
PCSat 29 Aug 21:52:25 21:53:54 11° 343° (NNW) 21:55:22 145.825 MHz
Oscar 11 29 Aug 21:56:20 22:00:21 38° 69° (ENE) 22:04:24 145.825 FM, Beacon 2401.500 USB
FUNcube-1 29 Aug 22:19:33 22:23:05 27° 66° (ENE) 22:26:40 145.950 - 145.970 MHz USB
HO-68 29 Aug 22:29:10 22:36:01 49° 260° (W) 22:42:56 435.675 MHz FM
STRAND 1 29 Aug 22:48:54 22:50:12 11° 308° (NW) 22:51:30 ?
Saudisat 1A 29 Aug 22:49:07 22:50:29 11° 108° (ESE) 22:51:51 436.775 MHz
MaSat-1 29 Aug 23:00:15 23:04:45 37° 51° (NE) 23:08:44 437.345 MHz
UKube-1 29 Aug 23:26:38 23:29:35 18° 268° (W) 23:32:32 145.840 MHz, 145.915 MHz
Oscar 11 29 Aug 23:33:10 23:36:40 24° 267° (W) 23:40:12 145.825 FM, Beacon 2401.500 USB
KITSAT 1 29 Aug 23:35:03 23:41:09 24° 104° (ESE) 23:47:15 435.175 FM
FUNcube-1 29 Aug 23:55:38 23:59:24 32° 264° (W) 00:03:15 145.950 - 145.970 MHz USB
Saudisat 1A 30 Aug 00:24:56 00:29:20 85° 126° (SE) 00:33:47 436.775 MHz
MaSat-1 30 Aug 00:37:38 00:41:38 29° 253° (WSW) 00:45:12 437.345 MHz
Sapphire 30 Aug 00:52:12 00:55:29 16° 28° (NNE) 00:58:45 437.095 MHz 1200 baud AX-25 AFSK
PCSat 30 Aug 01:21:28 01:25:42 22° 36° (NE) 01:29:54 145.825 MHz
KITSAT 1 30 Aug 01:27:30 01:35:37 86° 305° (NW) 01:43:46 435.175 FM
Saudisat 1A 30 Aug 02:06:12 02:09:30 20° 327° (NNW) 02:12:48 436.775 MHz
Oscar 16 30 Aug 02:09:35 02:13:03 18° 90° (E) 02:16:29 437.025 USB, Beacon 2401.1428
Sapphire 30 Aug 02:34:48 02:40:09 55° 51° (NE) 02:45:28 437.095 MHz 1200 baud AX-25 AFSK
AO-27 30 Aug 02:34:49 02:37:05 13° 87° (E) 02:39:21 436.795 MHz FM
PCSat 30 Aug 03:04:23 03:09:51 89° 238° (WSW) 03:15:17 145.825 MHz
Oscar 19 30 Aug 03:12:57 03:18:07 60° 101° (E) 03:23:14 437.125 CW, 437.150 USB
JAS-1B 30 Aug 03:24:54 03:31:10 35° 92° (E) 03:36:37 435.800 - 435.900 CW/SSB
KITSAT 1 30 Aug 03:25:08 03:32:10 31° 330° (NNW) 03:39:13 435.175 FM
OPAL 30 Aug 03:28:23 03:31:16 15° 53° (NE) 03:34:10 ?
ITAMSAT 1 30 Aug 03:43:22 03:48:25 50° 100° (E) 03:53:27 435.822 SSB
AO-Echo 30 Aug 03:47:22 03:52:02 60° 101° (ESE) 03:56:41 ?
Oscar 16 30 Aug 03:47:43 03:52:55 69° 288° (WNW) 03:58:04 437.025 USB, Beacon 2401.1428
TMSAT-1 30 Aug 03:48:32 03:52:30 21° 91° (E) 03:56:28 436.925 FM
Uribyol 2 30 Aug 03:53:30 03:58:41 65° 102° (ESE) 04:03:50 436.500 FM
AO-27 30 Aug 04:12:08 04:17:21 89° 105° (ESE) 04:22:33 436.795 MHz FM
Sapphire 30 Aug 04:18:46 04:23:16 27° 250° (WSW) 04:27:46 437.095 MHz 1200 baud AX-25 AFSK
SO-50 30 Aug 04:23:43 04:27:19 24° 114° (ESE) 04:31:00 436.795 FM
Oscar 10/S400 30 Aug 04:28:27 05:34:53 30° 234° (SW) 09:14:01 145.825 - 145.975 CW/USB, Beacon 145.810 USB
Gurwin Techsat 1B 30 Aug 04:35:24 04:40:44 69° 102° (ESE) 04:46:01 435.225 FM
Uosat F 30 Aug 04:39:35 04:40:59 11° 86° (E) 04:42:23 435.120 FM
PCSat 30 Aug 04:49:34 04:52:28 15° 256° (WSW) 04:55:23 145.825 MHz
Oscar 19 30 Aug 04:53:06 04:57:03 22° 300° (WNW) 05:01:00 437.125 CW, 437.150 USB
OPAL 30 Aug 05:04:19 05:09:24 86° 72° (ENE) 05:14:35 ?
JAS-1B 30 Aug 05:15:22 05:22:04 45° 297° (WNW) 05:27:50 435.800 - 435.900 CW/SSB
ITAMSAT 1 30 Aug 05:23:26 05:27:38 26° 298° (WNW) 05:31:51 435.822 SSB
KITSAT 1 30 Aug 05:24:52 05:30:32 20° 359° (N) 05:36:11 435.175 FM
AO-Echo 30 Aug 05:27:10 05:30:24 19° 300° (WNW) 05:33:38 ?
TMSAT-1 30 Aug 05:27:37 05:32:50 59° 289° (WNW) 05:38:01 436.925 FM
Oscar 16 30 Aug 05:29:23 05:31:20 12° 307° (NW) 05:33:18 437.025 USB, Beacon 2401.1428
Saudisat 1A 30 Aug 05:31:57 05:32:33 10° 16° (NNE) 05:33:09 436.775 MHz
Uribyol 2 30 Aug 05:33:55 05:37:42 21° 301° (WNW) 05:41:28 436.500 FM
AO-7 30 Aug 05:39:20 05:47:14 45° 99° (E) 05:55:03 29.400 - 29.500 MHz
AO-27 30 Aug 05:53:09 05:56:10 16° 304° (NW) 05:59:10 436.795 MHz FM
SO-50 30 Aug 06:03:12 06:07:36 51° 314° (NW) 06:12:07 436.795 FM
Uosat F 30 Aug 06:15:32 06:20:34 83° 105° (ESE) 06:25:34 435.120 FM
Gurwin Techsat 1B 30 Aug 06:16:23 06:20:11 20° 301° (WNW) 06:23:58 435.225 FM
UOSAT-12 30 Aug 06:26:58 06:31:05 33° 117° (ESE) 06:35:17 437.025 FM, 437.400 FM
JAS-2 30 Aug 06:29:21 06:32:19 15° 89° (E) 06:35:21 435.800 - 435.900 CW/SSB, 435.910 FM
OPAL 30 Aug 06:46:29 06:48:59 14° 270° (W) 06:51:31 ?
STRAND 1 30 Aug 06:47:27 06:52:06 37° 66° (ENE) 06:56:46 ?
JAS-1B 30 Aug 07:09:17 07:10:36 11° 322° (NW) 07:11:54 435.800 - 435.900 CW/SSB
Saudisat 1A 30 Aug 07:09:42 07:13:35 29° 39° (NE) 07:17:26 436.775 MHz
TMSAT-1 30 Aug 07:10:36 07:11:42 11° 309° (NW) 07:12:47 436.925 FM
KITSAT 1 30 Aug 07:22:04 07:28:59 30° 28° (NNE) 07:35:51 435.175 FM
AO-7 30 Aug 07:32:14 07:40:06 49° 300° (WNW) 07:47:56 29.400 - 29.500 MHz
SO-50 30 Aug 07:46:40 07:49:15 15° 336° (NNW) 07:51:52 436.795 FM
Hamsat 30 Aug 07:50:07 07:54:31 88° 104° (ESE) 07:58:51 145.90 MHz
Uosat F 30 Aug 07:55:44 07:58:43 16° 303° (WNW) 08:01:43 435.120 FM
UOSAT-12 30 Aug 08:06:45 08:11:10 41° 316° (NW) 08:15:40 437.025 FM, 437.400 FM
RS-15 30 Aug 08:12:08 08:22:04 41° 109° (ESE) 08:31:52 29.354 - 29.394 USB, Beacon 29.352 USB
JAS-2 30 Aug 08:12:50 08:18:03 77° 287° (WNW) 08:23:33 435.800 - 435.900 CW/SSB, 435.910 FM
STRAND 1 30 Aug 08:26:48 08:31:20 32° 264° (W) 08:35:54 ?
Saudisat 1A 30 Aug 08:49:06 08:53:22 48° 239° (WSW) 08:57:35 436.775 MHz
SO-67 30 Aug 09:09:07 09:12:35 71° 285° (WNW) 09:16:01 435.3500 MHz FM
KITSAT 1 30 Aug 09:17:32 09:25:41 80° 53° (NE) 09:33:46 435.175 FM
AO-7 30 Aug 09:26:51 09:30:58 15° 323° (NW) 09:35:05 29.400 - 29.500 MHz
Hamsat 30 Aug 09:28:04 09:29:48 12° 302° (WNW) 09:31:31 145.90 MHz
UOSAT-12 30 Aug 09:50:14 09:52:35 14° 339° (NNW) 09:54:56 437.025 FM, 437.400 FM
HO-68 30 Aug 09:53:25 09:59:29 29° 93° (E) 10:05:30 435.675 MHz FM
JAS-2 30 Aug 10:00:15 10:02:23 13° 306° (NW) 10:04:33 435.800 - 435.900 CW/SSB, 435.910 FM
RS-15 30 Aug 10:22:50 10:33:49 69° 314° (NW) 10:44:46 29.354 - 29.394 USB, Beacon 29.352 USB
UKube-1 30 Aug 11:09:58 11:14:18 62° 102° (ESE) 11:18:36 145.840 MHz, 145.915 MHz
SO-50 30 Aug 11:11:33 11:14:30 16° 26° (NNE) 11:17:29 436.795 FM
ISS 30 Aug 11:12:00 11:13:54 15° 135° (SE) 11:15:49 145.800 FM
KITSAT 1 30 Aug 11:13:52 11:20:17 27° 254° (WSW) 11:26:41 435.175 FM
Oscar 11 30 Aug 11:16:37 11:20:54 50° 99° (E) 11:25:08 145.825 FM, Beacon 2401.500 USB
HO-68 30 Aug 11:40:36 11:47:40 64° 293° (WNW) 11:54:42 435.675 MHz FM
FUNcube-1 30 Aug 11:40:53 11:45:07 38° 97° (E) 11:49:24 145.950 - 145.970 MHz USB
JAS-1B 30 Aug 12:25:41 12:30:11 15° 44° (NE) 12:34:26 435.800 - 435.900 CW/SSB
RS-15 30 Aug 12:38:50 12:48:31 34° 344° (NNW) 12:58:17 29.354 - 29.394 USB, Beacon 29.352 USB
ISS 30 Aug 12:46:52 12:50:11 79° 153° (SSE) 12:53:32 145.800 FM
UKube-1 30 Aug 12:47:19 12:50:03 17° 300° (WNW) 12:52:47 145.840 MHz, 145.915 MHz
SO-50 30 Aug 12:51:21 12:56:04 57° 48° (NE) 13:00:50 436.795 FM
Oscar 11 30 Aug 12:53:35 12:56:45 20° 297° (WNW) 12:59:54 145.825 FM, Beacon 2401.500 USB
Oscar 19 30 Aug 12:55:49 12:59:22 19° 58° (ENE) 13:02:55 437.125 CW, 437.150 USB
UOSAT-12 30 Aug 13:13:42 13:16:58 18° 29° (NNE) 13:20:14 437.025 FM, 437.400 FM
FUNcube-1 30 Aug 13:17:37 13:21:22 27° 294° (WNW) 13:25:10 145.950 - 145.970 MHz USB
AO-Echo 30 Aug 13:26:57 13:30:03 17° 59° (ENE) 13:33:06 ?
ITAMSAT 1 30 Aug 13:27:36 13:30:52 17° 57° (ENE) 13:34:09 435.822 SSB
Oscar 16 30 Aug 13:29:13 13:33:52 35° 65° (ENE) 13:38:33 437.025 USB, Beacon 2401.1428
HO-68 30 Aug 13:30:01 13:34:04 16° 314° (NW) 13:38:07 435.675 MHz FM
Uribyol 2 30 Aug 13:37:00 13:40:48 21° 59° (ENE) 13:44:37 436.500 FM
AO-27 30 Aug 13:55:10 13:59:31 28° 63° (ENE) 14:03:54 436.795 MHz FM
JAS-1B 30 Aug 14:09:49 14:18:59 51° 65° (ENE) 14:27:07 435.800 - 435.900 CW/SSB
Gurwin Techsat 1B 30 Aug 14:21:26 14:25:33 23° 60° (ENE) 14:29:40 435.225 FM
ISS 30 Aug 14:23:58 14:27:08 39° 352° (N) 14:30:18 145.800 FM
MaSat-1 30 Aug 14:27:06 14:32:00 64° 115° (ESE) 14:37:08 437.345 MHz
SO-50 30 Aug 14:32:32 14:36:19 24° 246° (WSW) 14:40:09 436.795 FM
Oscar 19 30 Aug 14:33:00 14:38:09 72° 257° (WSW) 14:43:22 437.125 CW, 437.150 USB
AO-7 30 Aug 14:52:09 14:58:08 23° 45° (NE) 15:04:06 29.400 - 29.500 MHz
UOSAT-12 30 Aug 14:53:14 14:57:59 70° 50° (NE) 15:02:39 437.025 FM, 437.400 FM
RS-15 30 Aug 14:54:55 15:04:46 36° 19° (NNE) 15:14:48 29.354 - 29.394 USB, Beacon 29.352 USB
AO-Echo 30 Aug 15:03:16 15:08:18 76° 257° (WSW) 15:13:12 ?
ITAMSAT 1 30 Aug 15:04:34 15:09:45 81° 256° (WSW) 15:14:57 435.822 SSB
Oscar 16 30 Aug 15:08:30 15:13:12 35° 264° (W) 15:17:57 437.025 USB, Beacon 2401.1428
TMSAT-1 30 Aug 15:12:05 15:17:04 44° 68° (ENE) 15:22:04 436.925 FM
Uribyol 2 30 Aug 15:14:44 15:19:51 63° 258° (WSW) 15:24:59 436.500 FM
AO-27 30 Aug 15:33:54 15:38:51 45° 261° (W) 15:43:49 436.795 MHz FM
Uosat F 30 Aug 15:54:37 15:58:33 24° 61° (ENE) 16:02:30 435.120 FM
Gurwin Techsat 1B 30 Aug 15:59:55 16:05:08 58° 259° (W) 16:10:24 435.225 FM
JAS-1B 30 Aug 16:00:04 16:09:26 50° 262° (W) 16:17:54 435.800 - 435.900 CW/SSB
ISS 30 Aug 16:01:04 16:04:18 44° 12° (NNE) 16:07:31 145.800 FM
MaSat-1 30 Aug 16:05:16 16:09:29 26° 315° (NW) 16:13:47 437.345 MHz
UOSAT-12 30 Aug 16:34:26 16:37:38 18° 249° (WSW) 16:40:47 437.025 FM, 437.400 FM
AO-7 30 Aug 16:41:24 16:49:43 77° 67° (ENE) 16:58:02 29.400 - 29.500 MHz
JAS-2 30 Aug 16:47:56 16:49:40 11° 53° (NE) 16:51:22 435.800 - 435.900 CW/SSB, 435.910 FM
ITAMSAT 1 30 Aug 16:48:33 16:50:05 11° 274° (W) 16:51:37 435.822 SSB
TMSAT-1 30 Aug 16:52:37 16:57:09 29° 266° (W) 17:01:43 436.925 FM
RS-15 30 Aug 17:08:10 17:19:14 75° 49° (NE) 17:30:41 29.354 - 29.394 USB, Beacon 29.352 USB
OPAL 30 Aug 17:12:11 17:15:39 18° 92° (E) 17:19:07 ?
Hamsat 30 Aug 17:13:30 17:15:12 12° 58° (ENE) 17:16:54 145.90 MHz
Sapphire 30 Aug 17:20:45 17:25:03 25° 109° (ESE) 17:29:23 437.095 MHz 1200 baud AX-25 AFSK
Uosat F 30 Aug 17:32:09 17:37:02 52° 260° (W) 17:41:57 435.120 FM
ISS 30 Aug 17:37:51 17:41:07 54° 212° (SSW) 17:44:23 145.800 FM
PCSat 30 Aug 17:49:13 17:54:19 45° 115° (ESE) 17:59:28 145.825 MHz
JAS-1B 30 Aug 18:00:47 18:01:46 10° 282° (WNW) 18:02:45 435.800 - 435.900 CW/SSB
JAS-2 30 Aug 18:27:55 18:33:55 64° 72° (ENE) 18:39:18 435.800 - 435.900 CW/SSB, 435.910 FM
